[ hide orbit diagram ]
For accurate long-term ephemerides, please instead use our Horizons system.This orbit viewer was implemented using two-body methods, and hence should not be used for determining accurate long-term trajectories (over several years or decades) or planetary encounter circumstances.
Orbital Elements at Epoch 2459000.5 (2020-May-31.0) TDB
Reference: JPL 16 (heliocentric ecliptic J2000)
Element | Value | Uncertainty (1-sigma) | Units |
e | .1457988461973544 | 4.4258e-08 | |
a | 2.361964324064784 | 1.2744e-08 | au |
q | 2.017592650856824 | 1.0489e-07 | au |
i | 1.735106679309318 | 4.7684e-06 | deg |
node | 255.2263450423453 | 0.00014832 | deg |
peri | 295.064740864537 | 0.00014933 | deg |
M | 172.0802986468064 | 1.9317e-05 | deg |
tp | 2458366.722119796621 (2018-Sep-05.22211980) | 6.7876e-05 | TDB |
period | 1325.892845766809 3.63 | 1.073e-05 2.938e-08 | d yr |
n | .2715151538447284 | 2.1974e-09 | deg/d |
Q | 2.706335997272744 | 1.4602e-08 | au |
|
| | Orbit Determination Parameters
Additional Information
|
[ show covariance matrix ]
Physical Parameter Table
Parameter |
Symbol |
Value |
Units |
Sigma |
Reference |
Notes |
absolute magnitude |
H |
16.7 |
|
n/a |
MPO436733 |
|
|
146016 (2000 CS115) Discovered 2000-Feb-01 by CSS at Catalina |
Reference: 20070106/Numbers.arc | Last Updated: 2007-01-09 |
|
|